FW8827 Weather Reports


time (UTC)temp
F
wind
direction
speed
knots
gust
knots
rain 1hr
in
rain 24hr
in
rain mn
in
humidity
%
barometer
mb
20260509213029 66 247 0.9 1.7 0.00 0.12 0.12 64 1007.8
20260509212526 65 214 3.5 4.3 0.00 0.12 0.12 64 1007.8
20260509212023 65 249 0.9 1.7 0.00 0.12 0.12 65 1008.0
20260509211518 65 247 0.9 1.7 0.00 0.12 0.12 65 1008.0
20260509211016 65 255 0.0 0.0 0.00 0.12 0.12 66 1007.9
20260509210512 65 224 3.5 4.3 0.00 0.12 0.12 66 1008.1
20260509210008 65 204 3.5 4.3 0.00 0.12 0.12 66 1008.2
20260509205503 65 202 1.7 2.6 0.00 0.12 0.12 66 1008.2
20260509204958 64 263 0.0 0.9 0.00 0.12 0.12 66 1008.3
20260509204455 65 204 5.2 7.0 0.00 0.12 0.12 63 1008.3
20260509203951 65 242 0.9 0.9 0.00 0.12 0.12 64 1008.2
20260509203447 64 194 3.5 4.3 0.00 0.12 0.12 67 1008.0
20260509202945 64 245 1.7 2.6 0.00 0.12 0.12 64 1008.3
20260509202441 65 233 1.7 2.6 0.00 0.12 0.12 65 1008.4
20260509201936 65 237 0.9 0.9 0.00 0.12 0.12 65 1008.5
20260509201431 65 212 0.0 0.9 0.00 0.12 0.12 66 1008.5
20260509200929 64 244 1.7 2.6 0.00 0.12 0.12 68 1008.6
20260509200428 64 261 0.9 0.9 0.00 0.12 0.12 68 1008.6
20260509195926 64 238 1.7 1.7 0.00 0.12 0.12 69 1008.6
20260509195421 64 204 4.3 7.0 0.00 0.12 0.12 69 1008.7
20260509194920 64 259 0.9 0.9 0.00 0.12 0.12 70 1008.9
20260509194417 63 214 0.0 1.7 0.00 0.12 0.12 71 1008.8
20260509193914 62 188 4.3 5.2 0.00 0.12 0.12 70 1008.6
20260509193413 62 264 2.6 2.6 0.00 0.12 0.12 71 1009.1
20260509192910 62 248 0.9 1.7 0.00 0.12 0.12 72 1009.1
20260509192406 62 225 2.6 2.6 0.00 0.12 0.12 72 1009.2
20260509191901 62 186 6.1 7.0 0.00 0.12 0.12 73 1009.3
20260509191357 62 242 3.5 5.2 0.00 0.12 0.12 72 1009.4
20260509190853 62 212 3.5 4.3 0.00 0.12 0.12 72 1009.5
20260509190350 62 219 3.5 4.3 0.00 0.12 0.12 71 1009.3
20260509185848 62 236 2.6 4.3 0.00 0.12 0.12 74 1009.4
20260509185344 61 206 2.6 2.6 0.00 0.12 0.12 74 1009.5
20260509184842 61 191 2.6 4.3 0.00 0.12 0.12 75 1009.5
20260509184338 60 250 1.7 1.7 0.00 0.12 0.12 75 1009.4
20260509183835 61 258 0.0 0.0 0.00 0.12 0.12 74 1009.5
20260509183330 61 241 3.5 4.3 0.00 0.12 0.12 74 1009.6
20260509182827 61 238 1.7 1.7 0.00 0.12 0.12 76 1009.7
20260509182324 59 196 2.6 2.6 0.00 0.12 0.12 79 1009.5
20260509181821 59 207 4.3 5.2 0.00 0.12 0.12 78 1009.6
20260509181318 59 255 0.9 0.9 0.00 0.12 0.12 79 1009.9
20260509180815 59 252 0.9 1.7 0.00 0.12 0.12 79 1010.0
20260509180312 59 254 1.7 2.6 0.00 0.12 0.12 79 1010.1
20260509175808 59 221 1.7 2.6 0.00 0.12 0.12 78 1009.9
20260509175306 59 236 1.7 1.7 0.00 0.12 0.12 78 1009.9
20260509174801 59 276 1.7 2.6 0.00 0.12 0.12 78 1010.0
20260509174256 58 190 5.2 5.2 0.00 0.12 0.12 79 1009.7
20260509173752 59 221 1.7 1.7 0.00 0.12 0.12 80 1010.1
20260509173248 59 203 1.7 2.6 0.00 0.12 0.12 80 1010.1
20260509172744 59 249 2.6 2.6 0.00 0.12 0.12 81 1009.7
20260509172241 58 198 2.6 4.3 0.00 0.12 0.12 81 1009.5
20260509171736 58 262 0.9 0.9 0.00 0.12 0.12 83 1009.7
20260509171233 57 250 0.9 1.7 0.00 0.12 0.12 84 1009.4
20260509170730 57 234 1.7 1.7 0.00 0.12 0.12 86 1009.7
20260509170226 57 214 3.5 4.3 0.00 0.12 0.12 85 1009.7
20260509165724 57 202 4.3 4.3 0.00 0.12 0.12 85 1009.4
20260509165219 57 218 4.3 5.2 0.00 0.12 0.12 85 1009.4
20260509164716 57 227 4.3 4.3 0.00 0.12 0.12 86 1009.4
20260509164211 57 260 2.6 2.6 0.00 0.12 0.12 88 1009.5
20260509163709 57 213 3.5 4.3 0.00 0.12 0.12 90 1009.5
20260509163206 56 226 4.3 5.2 0.00 0.12 0.12 91 1009.2
20260509162703 55 225 2.6 2.6 0.00 0.12 0.12 93 1009.4
20260509162159 55 232 2.6 2.6 0.00 0.12 0.12 94 1009.6
20260509161654 55 214 2.6 2.6 0.00 0.12 0.12 94 1009.9
20260509161150 55 275 1.7 2.6 0.00 0.12 0.12 96 1009.4
20260509160646 53 236 2.6 2.6 0.00 0.12 0.12 95 1009.4
20260509160141 53 222 2.6 2.6 0.00 0.12 0.12 95 1009.4
20260509155638 53 199 4.3 5.2 0.00 0.12 0.12 95 1009.5
20260509155134 53 228 1.7 1.7 0.00 0.12 0.12 95 1009.5
20260509154630 53 254 0.9 0.9 0.00 0.12 0.12 96 1009.5
20260509154127 53 253 0.9 0.9 0.00 0.12 0.12 96 1009.6
20260509153624 52 261 0.0 0.0 0.07 0.12 0.12 96 1009.6
20260509153121 52 262 0.0 0.0 0.07 0.12 0.12 96 1009.7
20260509152617 52 261 0.0 0.9 0.00 0.11 0.11 96 1009.3
20260509152114 52 233 1.7 1.7 0.00 0.11 0.11 95 1009.3
20260509151610 52 250 0.9 0.9 0.00 0.11 0.11 96 1009.4
20260509151109 52 235 1.7 1.7 0.00 0.11 0.11 96 1009.4
20260509150606 52 260 0.0 0.0 0.00 0.11 0.11 96 1009.7
20260509150104 52 245 1.7 1.7 0.00 0.11 0.11 96 1009.5
20260509145559 52 231 1.7 1.7 0.00 0.11 0.11 96 1009.7
20260509145055 52 259 0.9 1.7 0.05 0.11 0.11 96 1009.5
20260509144552 52 250 1.7 1.7 0.05 0.11 0.11 96 1009.4
20260509144049 52 261 1.7 2.6 0.00 0.10 0.10 96 1009.5
20260509143546 52 242 1.7 1.7 0.00 0.10 0.10 96 1009.5
20260509143044 52 209 3.5 4.3 0.00 0.10 0.10 96 1009.5
20260509142539 52 184 2.6 2.6 0.00 0.10 0.10 96 1009.7
20260509142035 52 240 1.7 1.7 0.00 0.10 0.10 96 1009.6
20260509141531 51 251 0.9 0.9 0.00 0.10 0.10 96 1009.6
20260509141028 52 218 3.5 4.3 0.00 0.10 0.10 96 1009.6
20260509140525 51 239 0.9 1.7 0.00 0.10 0.10 96 1009.7
20260509140023 51 233 1.7 1.7 0.00 0.10 0.10 96 1009.6
20260509135520 51 218 2.6 2.6 0.00 0.10 0.10 96 1009.6
20260509135017 51 236 2.6 2.6 0.00 0.10 0.10 96 1009.5
20260509134514 51 243 0.9 1.7 0.00 0.10 0.10 96 1009.7
20260509134012 51 238 0.9 1.7 0.00 0.10 0.10 96 1009.9
20260509133508 51 229 2.6 2.6 0.00 0.10 0.10 96 1009.9
20260509133007 51 246 2.6 4.3 0.07 0.10 0.10 96 1010.1
20260509132505 51 248 0.9 1.7 0.07 0.10 0.10 96 1009.7
20260509132002 51 262 0.0 0.9 0.05 0.09 0.09 96 1009.6
20260509131458 51 241 1.7 1.7 0.05 0.09 0.09 96 1010.0
20260509130955 51 262 0.0 0.0 0.07 0.08 0.08 95 1009.6
20260509130450 51 224 2.6 2.6 0.07 0.08 0.08 95 1009.9
20260509125948 51 231 1.7 2.6 0.05 0.07 0.07 95 1009.7
20260509125444 51 259 0.9 0.9 0.05 0.07 0.07 95 1010.1
20260509124940 51 239 2.6 2.6 0.00 0.06 0.06 95 1010.1
20260509124438 51 252 0.0 0.9 0.07 0.06 0.06 95 1010.3
20260509123935 51 234 1.7 1.7 0.07 0.06 0.06 95 1010.2
20260509123432 51 260 0.0 0.0 0.00 0.05 0.05 95 1010.1
20260509122928 51 220 3.5 4.3 0.00 0.05 0.05 95 1010.0
20260509122425 51 243 0.9 1.7 0.05 0.05 0.05 94 1010.2
20260509121921 51 255 0.9 0.9 0.05 0.05 0.05 94 1010.2
20260509121419 51 244 0.9 1.7 0.07 0.04 0.04 94 1010.6
20260509120917 51 249 1.7 1.7 0.07 0.04 0.04 94 1010.2
20260509120414 51 236 2.6 2.6 0.00 0.03 0.03 94 1010.3
20260509115912 51 229 2.6 4.3 0.00 0.03 0.03 94 1010.4
20260509115409 51 239 0.9 0.9 0.00 0.03 0.03 93 1010.1
20260509114907 51 197 4.3 5.2 0.00 0.03 0.03 93 1010.0
20260509114405 51 257 0.9 0.9 0.00 0.03 0.03 93 1010.1
20260509113904 51 244 0.9 0.9 0.05 0.03 0.03 93 1010.1
20260509113401 51 241 0.9 0.9 0.05 0.03 0.03 92 1010.0
20260509112857 51 232 2.6 2.6 0.07 0.02 0.02 92 1010.0
20260509112354 51 254 1.7 1.7 0.07 0.02 0.02 91 1009.9
20260509111852 51 246 0.9 1.7 0.00 0.01 0.01 91 1010.0
20260509111348 51 249 0.0 0.0 0.00 0.01 0.01 91 1010.0
20260509110847 51 207 3.5 4.3 0.00 0.01 0.01 90 1009.9
20260509110342 51 256 0.0 0.0 0.00 0.01 0.01 90 1009.9
20260509105841 51 213 2.6 2.6 0.00 0.01 0.01 90 1010.0
20260509105339 51 205 4.3 5.2 0.00 0.01 0.01 91 1009.7
20260509104835 51 229 2.6 2.6 0.00 0.01 0.01 91 1009.6
20260509104331 51 253 1.7 2.6 0.00 0.01 0.01 91 1009.6
20260509103829 51 259 0.9 1.7 0.00 0.01 0.01 91 1009.9
20260509103326 51 248 1.7 1.7 0.00 0.01 0.01 91 1009.7
20260509102825 51 235 3.5 5.2 0.00 0.01 0.01 91 1009.7
20260509102322 51 258 0.9 0.9 0.00 0.01 0.01 91 1009.6
20260509101818 51 258 1.7 1.7 0.00 0.01 0.01 91 1009.4
20260509101314 51 198 3.5 4.3 0.00 0.01 0.01 91 1009.5
20260509100812 51 184 2.6 2.6 0.00 0.01 0.01 91 1009.6
20260509100309 51 255 0.9 0.9 0.00 0.01 0.01 91 1009.3
20260509095805 51 245 0.0 0.9 0.00 0.01 0.01 91 1009.7
20260509095305 51 251 0.9 1.7 0.05 0.01 0.01 91 1010.0
20260509094800 50 248 1.7 1.7 0.05 0.01 0.01 92 1009.6
20260509094256 50 252 0.9 1.7 0.05 0.01 0.01 92 1009.7
20260509093754 50 238 1.7 1.7 0.00 0.00 0.00 92 1009.7
20260509093251 50 233 1.7 1.7 0.00 0.00 0.00 93 1010.1
20260509092750 50 260 0.0 0.9 0.00 0.00 0.00 93 1010.1
20260509092247 50 257 0.0 0.0 0.00 0.00 0.00 94 1010.2
20260509091745 50 251 0.9 0.9 0.00 0.00 0.00 94 1010.3
20260509091241 50 259 0.9 0.9 0.00 0.00 0.00 94 1010.3
20260509090739 50 254 0.0 0.9 0.00 0.00 0.00 94 1010.1
20260509090236 50 247 0.9 0.9 0.00 0.00 0.00 94 1010.3
20260509085734 49 256 0.0 0.0 0.00 0.00 0.00 95 1010.4
20260509085231 49 259 0.0 0.0 0.00 0.00 0.00 95 1010.3
20260509084727 49 250 0.9 0.9 0.00 0.00 0.00 95 1010.4
20260509084224 49 253 0.9 0.9 0.00 0.00 0.00 94 1010.3
20260509083722 49 246 0.9 1.7 0.00 0.00 0.00 94 1010.4
20260509083218 49 255 0.0 0.0 0.00 0.00 0.00 94 1010.4
20260509082715 49 246 0.9 1.7 0.00 0.00 0.00 94 1010.4
20260509082212 49 255 0.0 0.9 0.00 0.00 0.00 94 1010.3
20260509081709 49 253 0.9 0.9 0.00 0.00 0.00 94 1010.2
20260509081206 49 260 0.0 0.0 0.00 0.00 0.00 94 1010.1
20260509080704 49 263 0.0 0.0 0.00 0.00 0.00 93 1010.1
20260509080202 49 258 0.0 0.0 0.00 0.00 0.00 94 1010.2
20260509075700 49 273 0.0 0.0 0.00 0.00 0.00 93 1010.2
20260509075157 49 262 0.0 0.0 0.00 0.00 0.00 93 1010.0
20260509074654 49 262 0.0 0.0 0.00 0.00 0.00 93 1010.3
20260509074150 49 261 0.0 0.0 0.00 0.00 0.00 93 1010.2
20260509073647 49 261 0.0 0.0 0.00 0.00 0.00 93 1009.9
20260509073144 49 263 0.0 0.0 0.00 0.00 0.00 93 1009.9
20260509072641 49 263 0.0 0.0 0.00 0.00 0.00 93 1009.6
20260509072137 49 265 0.0 0.0 0.00 0.00 0.00 93 1009.5
20260509071634 49 266 0.0 0.0 0.00 0.00 0.00 93 1009.6
20260509071131 49 262 0.0 0.0 0.00 0.00 0.00 93 1009.5
20260509070628 49 264 0.0 0.0 0.00 0.00 0.00 93 1009.6
20260509070124 49 264 0.0 0.0 0.00 0.00 0.00 93 1009.6
20260509065620 49 263 0.0 0.0 0.00 0.00 0.00 93 1009.7
20260509065116 49 261 0.0 0.0 0.00 0.00 0.00 93 1009.7
20260509064614 49 261 0.0 0.0 0.00 0.00 0.00 93 1010.0
20260509064112 49 262 0.0 0.0 0.00 0.00 0.00 93 1009.9
20260509063608 49 259 0.0 0.0 0.00 0.00 0.00 93 1010.4
20260509063105 49 261 0.0 0.0 0.00 0.00 0.00 93 1010.2
20260509062602 49 259 0.0 0.0 0.00 0.00 0.00 93 1010.5
20260509062059 49 262 0.0 0.0 0.00 0.00 0.00 93 1010.6
20260509061556 49 262 0.0 0.0 0.00 0.00 0.00 93 1010.6
20260509061053 49 257 0.0 0.0 0.00 0.00 0.00 93 1010.4
20260509060551 49 260 0.0 0.0 0.00 0.00 0.00 93 1010.5
20260509060046 49 231 1.7 1.7 0.00 0.00 0.00 93 1010.8
20260509055542 49 256 0.0 0.0 0.00 0.00 0.00 93 1010.6
20260509055038 49 256 0.0 0.0 0.00 0.00 0.00 93 1010.8
20260509054535 49 255 0.9 0.9 0.00 0.00 0.00 93 1010.8
20260509054033 49 196 0.0 0.0 0.00 0.00 0.00 93 1010.9
20260509053531 49 270 0.0 0.0 0.00 0.00 0.00 93 1010.6
20260509053028 49 265 0.0 0.0 0.00 0.00 0.00 93 1010.7
20260509052525 49 266 0.0 0.0 0.00 0.00 0.00 93 1010.9
20260509052023 49 266 0.0 0.0 0.00 0.00 0.00 93 1011.0
20260509051521 49 265 0.0 0.0 0.00 0.00 0.00 92 1011.1
20260509051018 49 268 0.0 0.0 0.00 0.00 0.00 92 1010.8
20260509050515 49 268 0.0 0.9 0.00 0.00 0.00 92 1011.0
20260509050011 49 266 0.0 0.0 0.00 0.00 0.00 92 1011.2
20260509045508 49 265 0.0 0.0 0.00 0.00 0.00 92 1010.9
20260509045005 49 268 0.0 0.0 0.00 0.00 0.00 92 1010.8
20260509044503 49 277 0.9 0.9 0.00 0.00 0.00 92 1011.1
20260509044000 49 265 0.0 0.0 0.00 0.00 0.00 92 1011.2
20260509043456 49 296 0.9 1.7 0.00 0.00 0.00 92 1011.1
20260509042951 49 266 0.0 0.0 0.00 0.00 0.00 92 1011.2
20260509042449 49 220 0.0 0.0 0.00 0.00 0.00 92 1011.3
20260509041944 49 265 0.0 0.0 0.00 0.00 0.00 92 1011.0
20260509041442 49 276 0.9 0.9 0.00 0.00 0.00 92 1011.4
20260509040940 49 268 0.0 0.0 0.00 0.00 0.00 92 1011.5
20260509040438 49 266 0.0 0.0 0.00 0.00 0.00 92 1011.5
20260509035934 49 275 0.9 0.9 0.00 0.02 0.02 92 1011.7
20260509035431 50 271 0.0 0.9 0.00 0.02 0.02 91 1011.7
20260509034927 50 268 0.0 0.0 0.00 0.02 0.02 91 1012.0
20260509034425 50 220 0.0 0.0 0.00 0.02 0.02 91 1011.9
20260509033922 50 268 0.0 0.0 0.00 0.02 0.02 91 1011.9
20260509033419 50 272 0.0 0.0 0.00 0.02 0.02 91 1012.3
20260509032915 50 265 0.0 0.0 0.00 0.02 0.02 91 1012.3
20260509032413 50 270 0.0 0.0 0.00 0.02 0.02 91 1012.2
20260509031911 50 272 0.0 0.0 0.00 0.02 0.02 90 1012.3
20260509031408 50 270 0.0 0.9 0.07 0.02 0.02 90 1012.4
20260509030905 50 357 0.0 0.9 0.07 0.02 0.02 90 1012.4
20260509030404 50 272 0.0 0.0 0.00 0.01 0.01 90 1012.5
20260509025900 50 266 0.0 0.0 0.00 0.01 0.01 90 1012.6
20260509025355 51 299 0.9 1.7 0.00 0.01 0.01 90 1012.7
20260509024851 51 263 0.0 0.0 0.00 0.01 0.01 89 1012.6
20260509024347 51 282 1.7 1.7 0.00 0.01 0.01 89 1012.6
20260509023845 51 266 0.0 0.0 0.07 0.01 0.01 88 1012.7
20260509023342 51 262 0.0 0.0 0.07 0.01 0.01 88 1012.7
20260509022838 51 265 0.0 0.0 0.07 0.01 0.01 88 1012.7
20260509022336 51 266 0.9 0.9 0.00 0.00 0.00 87 1012.7
20260509021832 51 280 0.9 0.9 0.00 0.00 0.00 87 1012.6
20260509021329 51 264 0.0 0.9 0.00 0.00 0.00 87 1012.4
20260509020827 51 291 0.9 0.9 0.00 0.00 0.00 85 1012.7
20260509020325 52 270 0.9 0.9 0.00 0.00 0.00 85 1012.3
20260509015822 52 264 0.0 0.0 0.00 0.00 0.00 83 1012.3
20260509015320 52 259 0.9 0.9 0.00 0.00 0.00 83 1012.3
20260509014817 52 277 0.9 0.9 0.00 0.00 0.00 83 1011.9
20260509014314 52 298 0.9 0.9 0.00 0.00 0.00 84 1012.0
20260509013810 52 266 0.9 1.7 0.00 0.00 0.00 84 1011.8
20260509013307 52 257 0.0 0.9 0.00 0.00 0.00 82 1011.8
20260509012803 52 264 0.0 0.0 0.00 0.00 0.00 81 1011.9
20260509012300 53 265 0.0 0.0 0.00 0.00 0.00 81 1011.7
20260509011757 53 265 0.0 0.9 0.00 0.00 0.00 79 1011.4
20260509011254 53 275 0.9 0.9 0.00 0.00 0.00 79 1011.6
20260509010752 53 270 0.9 0.9 0.00 0.00 0.00 79 1011.5
20260509010248 53 254 0.9 0.9 0.00 0.00 0.00 79 1011.3
20260509005746 53 263 0.0 0.0 0.00 0.00 0.00 76 1011.5
20260509005244 54 263 0.0 0.0 0.00 0.00 0.00 75 1011.3
20260509004743 54 277 0.9 0.9 0.00 0.00 0.00 75 1011.3
20260509004241 54 275 0.0 0.9 0.00 0.00 0.00 76 1011.0
20260509003739 53 266 0.0 0.0 0.00 0.00 0.00 76 1011.0
20260509003236 53 256 0.0 0.0 0.00 0.00 0.00 76 1011.1
20260509002733 53 257 0.0 0.0 0.00 0.00 0.00 77 1011.1
20260509002231 54 255 0.0 0.0 0.00 0.00 0.00 77 1011.0
20260509001728 54 264 0.0 0.0 0.00 0.00 0.00 77 1011.0
20260509001224 54 268 0.0 0.0 0.00 0.00 0.00 77 1010.8
20260509000722 54 262 0.0 0.9 0.00 0.00 0.00 77 1010.9
20260509000219 54 262 0.0 0.0 0.00 0.00 0.00 77 1011.1
20260508235716 54 259 0.0 0.0 0.00 0.00 0.00 77 1011.0
20260508235212 54 261 0.0 0.0 0.00 0.00 0.00 77 1011.1
20260508234710 54 261 0.0 0.9 0.00 0.00 0.00 77 1011.1
20260508234206 54 260 0.0 0.9 0.00 0.00 0.00 77 1011.2
20260508233706 55 262 0.0 0.0 0.00 0.00 0.00 77 1011.2
20260508233203 54 270 0.0 0.9 0.00 0.00 0.00 76 1011.3
20260508232700 54 263 0.0 0.0 0.00 0.00 0.00 76 1011.4
20260508232156 55 272 0.0 0.9 0.00 0.00 0.00 75 1011.4
20260508231655 55 184 0.0 0.0 0.00 0.00 0.00 75 1011.3
20260508231151 55 264 0.0 0.0 0.00 0.00 0.00 75 1011.3
20260508230648 55 260 0.0 0.0 0.00 0.00 0.00 74 1011.5
20260508230144 55 263 0.0 0.0 0.00 0.00 0.00 74 1011.3
20260508225643 55 276 0.9 0.9 0.00 0.00 0.00 74 1011.4
20260508225138 55 266 0.0 0.0 0.00 0.00 0.00 73 1011.2
20260508224636 54 264 0.0 0.0 0.00 0.00 0.00 75 1011.4
20260508224134 55 265 0.0 0.0 0.00 0.00 0.00 77 1011.5
20260508223631 54 265 0.0 0.0 0.00 0.00 0.00 78 1011.5
20260508223128 54 268 0.0 0.0 0.00 0.00 0.00 79 1011.3
20260508222626 55 268 0.0 0.0 0.00 0.00 0.00 77 1011.4
20260508222123 55 266 0.0 0.9 0.00 0.00 0.00 75 1011.5
20260508221619 55 262 0.0 0.0 0.00 0.00 0.00 74 1011.3
20260508221115 55 264 0.0 0.0 0.00 0.00 0.00 74 1011.3
20260508220611 56 354 0.9 0.9 0.00 0.00 0.00 71 1011.4
20260508220108 56 265 0.0 0.0 0.00 0.00 0.00 70 1011.2
20260508215605 57 268 0.0 0.0 0.00 0.00 0.00 70 1011.4
20260508215101 57 261 0.0 0.0 0.00 0.00 0.00 69 1011.3
20260508214559 56 258 0.0 0.0 0.00 0.00 0.00 68 1011.5
20260508214055 57 260 0.0 0.0 0.00 0.00 0.00 72 1011.5
20260508213552 57 259 0.0 0.0 0.00 0.00 0.00 70 1011.4